USTRURKA

Guest
Details From USTR - Roschino
To URKA - Vityazevo
Flight Number -
Tags Generated
Created
Modified
Stats Distance 1,269 nm / 2,350 km
Max Altitude 0 ft / 0 m
Waypoints 6
Social Downloads 0
Likes 0
Share VATSIM

Download

Looking for another format? Having issues loading an existing format? Contact us
Advertisement - Login to hide

Notes

Generated

Route

USTR GOLER PEKUR RYBAK ANAKA URKA

ID Type Via Altitude Latitude Longitude Leg Dist Tot Dist Heading (true) Name
O USTR APT - 0 ft / 0 m 57.17551˚ 65.29199˚ - 0 nm - -
GOLER FIX - 0 ft / 0 m 55.20000˚ 58.15000˚ 266 nm 266 nm 247° / 241° -
PEKUR FIX - 0 ft / 0 m 53.19000˚ 52.56833˚ 230 nm 496 nm 241° / 236° -
RYBAK FIX - 0 ft / 0 m 47.65000˚ 41.50000˚ 537 nm 1034 nm 236° / 228° -
ANAKA FIX - 0 ft / 0 m 45.00167˚ 37.34833˚ 234 nm 1268 nm 229° / 226° -
O URKA APT - 0 ft / 0 m 44.99374˚ 37.33714˚ 0 nm 1269 nm 225° / 225° -

Altitude Profile

Advertisement - Login to hide

Weather


0- 5 10 15 20 25 30 35+ Temperature / ° C

Clouds and Precipitation
Forecast for 2018-05-25 00:00 UTC. Updated 2 hours ago

Ground ~20,000 ft ~40,000 ft Winds

USTR

Details ICAO USTR (TJM)
Name Roschino
Region Russia
Timezone Asia/Yekaterinburg (UTC+5.0)
Stats Elevation 377 ft / 115 m (AMSL)
Location 57.180416° 65.314677°
Runways 3
Magnetic Variation 15.006° E

METAR

USTR 250130Z 07002MPS CAVOK 10/06 Q1012 R21/190063 NOSIG RMK QFE750/1000

Decode

TAF

TAF USTR 242300Z 2500/2524 04003MPS 9999 BKN020 BECMG 2502/2503 10003MPS TEMPO 2509/2524 5000 -SHRA BKN015CB BECMG 2512/2514 02005MPS

Decode

Departure Runways

ID Width Length Bearing (true) Bearing (mag) Surface Threshold Offset Overrun Length
03 148 ft / 45 m 9,827 ft / 2,995 m 47.68° 32.67° Asphalt 0 ft / 0 m 0 ft / 0 m
03L 328 ft / 100 m 6,705 ft / 2,044 m 47.58° 32.57° Grass 0 ft / 0 m 0 ft / 0 m
12 164 ft / 50 m 8,820 ft / 2,688 m 134.79° 119.78° Asphalt 0 ft / 0 m 0 ft / 0 m
21 148 ft / 45 m 9,827 ft / 2,995 m 227.71° 212.70° Asphalt 0 ft / 0 m 0 ft / 0 m
21R 328 ft / 100 m 6,705 ft / 2,044 m 227.60° 212.59° Grass 0 ft / 0 m 0 ft / 0 m
30 164 ft / 50 m 8,820 ft / 2,688 m 314.81° 299.80° Asphalt 0 ft / 0 m 0 ft / 0 m

URKA

Details ICAO URKA (AAQ)
Name Vityazevo
Region Russia
Timezone Europe/Moscow (UTC+3.0)
Stats Elevation 173 ft / 53 m (AMSL)
Location 45.001895° 37.347609°
Runways 2
Magnetic Variation 7.214° E

METAR

URKA 250130Z AUTO 06006MPS 7000 NCD 17/17 Q1010 RMK QFE754/1005

Decode

TAF

TAF AMD TAF AMD URKA 242030Z 2421/2521 CNL

Decode

Destination Runways

ID Width Length Bearing (true) Bearing (mag) Surface Threshold Offset Overrun Length
04 138 ft / 42 m 7,961 ft / 2,426 m 43.79° 36.58° Concrete 0 ft / 0 m 157 ft / 48 m
04R 312 ft / 95 m 8,009 ft / 2,441 m 43.78° 36.57° Grass 0 ft / 0 m 0 ft / 0 m
22 138 ft / 42 m 7,961 ft / 2,426 m 223.81° 216.60° Concrete 0 ft / 0 m 164 ft / 50 m
22L 312 ft / 95 m 8,009 ft / 2,441 m 223.80° 216.59° Grass 0 ft / 0 m 0 ft / 0 m